Flag for Iran Weather past 2 weeks in Behbahan, Iran

Now
111 °F

Sunny.


Feels Like: 103 °F
Forecast: 82 / 114 °F
Wind: 14 mph from Northwest

Location: Gach Saran Du Gunbadan

Current Time: Aug 30, 2015 at 3:30:28 PM

Latest Report: Aug 30, 2015 at 2:30 PM


Visibility: 10 mi

Pressure: 29.77 "Hg

Humidity: 5%

Dew point: 25 °F

Location of BehbahanLocation

Historic Weather in Behbahan — Graph

°F

Behbahan temperature yesterday

Maximum temperature yesterday: 113 °F (at 2:30 PM)
Minimum temperature yesterday: 79 °F (at 6:30 AM)
Average temperature yesterday: 98 °F

Past Weeks' High & Low Weather Summary

 TemperatureHumidityPressure
High113 °F (Aug 21, 2:30 PM)70% (Aug 21, 6:30 AM)30.12 "Hg (Aug 21, 6:30 AM)
Low66 °F (Aug 28, 3:30 AM)2% (Aug 16, 3:30 PM)29.68 "Hg (Aug 15, 4:30 PM)
Average96 °F24%29.75 "Hg
* Reported Aug 15 2:30 PM — Aug 30 2:30 PM, Behbahan, Weather by CustomWeather, © 2015

Note: Actual official high and low records may vary slightly from our data, if they occured in-between our weather recording intervals... More about our weather records

Advertising

Behbahan weather history for previous 24 hours

 ConditionsComfort  
Time TempWeatherWind HumidityBarometerVisibility
2:30 PM
Sun, Aug 30
111 °FSunny.14 mph5%29.77 "Hg10 mi
1:30 PM111 °FSunny.14 mph6%29.80 "Hg10 mi
12:30 PM108 °FSunny.12 mph6%29.80 "Hg10 mi
11:30 AM104 °FSunny.No wind8%29.83 "Hg10 mi
10:30 AM102 °FSunny.No wind9%29.83 "Hg10 mi
9:30 AM95 °FSunny.No wind14%29.83 "Hg10 mi
8:30 AM93 °FSunny.No wind14%29.80 "Hg10 mi
6:30 AM81 °FClear.No wind21%29.80 "Hg10 mi
5:30 AM82 °FClear.No wind19%29.80 "Hg10 mi
4:30 AM82 °FClear.No wind17%29.77 "Hg10 mi
3:30 AM82 °FClear.No wind21%29.77 "Hg10 mi
2:30 AM88 °FClear.No wind15%29.77 "Hg10 mi
1:30 AM91 °FClear.No wind13%29.77 "Hg10 mi
12:30 AM95 °FClear.7 mph11%29.80 "Hg10 mi
11:30 PM
Sat, Aug 29
93 °FClear.9 mph11%29.80 "Hg10 mi
10:30 PM97 °FClear.7 mph11%29.80 "Hg10 mi
9:30 PM99 °FClear.No wind10%29.77 "Hg10 mi
8:30 PM102 °FSunny.7 mph8%29.77 "Hg10 mi
7:30 PM106 °FSunny.12 mph7%29.74 "Hg10 mi
6:30 PM109 °FSunny.12 mph5%29.74 "Hg10 mi
5:30 PM111 °FSunny.5 mph5%29.74 "Hg10 mi
4:30 PM111 °FSunny.12 mph5%29.74 "Hg10 mi
Weather by CustomWeather, © 2015

See weather overviewHow to use our weather pages